Погода в Сызрани

Погода в Сызрани : погода сейчас, прогноз погоды и архив. Всё, что Вы хотите узнать о погоде в Сызрани!

Хотите узнать прогноз погоды в Сызрани? Тогда Вам сюда: Погода в Сызрани

Поиск расширенной информации на нашем сайте:

Полезная информация: Актуальная информация горящие туры в Турцию, цены на путевки в Турцию здесь. - Poisk-toura.com

Другие новости

Новости СМИ2

Главная страница сайта

Новости сайта

03.07.2017

Напоминаем, что на нашем специализированном сайте Метеоцентр.Азия вы можете получить высокодетализированные автоматические прогнозы погоды по пунктам России, СНГ и мира в авиационном формате (включающие направление и скорость ветра, видимость, явления погоды, количество и форму облачности, нижнюю и верхнюю границу облачности).

Рекомендуем: Оплата тура онлайн купить тур онлайн. - Guru-tour.ru

Погода в Сызрани - сегодня

Время (UTC), дата Ветер
(°,м/с) 
Видим.   Явления Облачность Т
(°С)
Тd
(°С)
f(%) Тe
(°С)
Pmin
(гПа)
dP
(гПа)
Po
(мм)
O2
(г/м3)
Тmin Tmax R s Состояние
почвы
00 18.09.17 310 (СЗ) 19000 м    ясно 
+7 +5.6 91 +8  1022.8  0.1  758  297           
03 18.09.17 340 (С) 20000 м    3/0 верхняя 
[Ci fib]
+6.2 +5 92 +7  1023.4  0.5  758  298  +5.9        сухая 
06 18.09.17 140 (ЮВ) 20000 м    ясно 
+15.5 +10 70 +17  1022.1  -0.8  757  287           
09 18.09.17 150 (ЮВ) 20000 м    8/0 верхняя 
[Ci fib]
+22 +9.2 44 +22  1020.1  -1.7  756  280           
12 18.09.17 180 (Ю) 20000 м    9/0 верхняя 
[Ci fib]
+24.8 +7.1 32 +25  1018.1  -1.9  755  278           
18 18.09.17 тихо ()   20000 м    ясно 
+12.9 +11.1 89 +15  1016.5  -0.4  753  288           
21 18.09.17 360 (С) 18000 м    ясно 
+11.1 +10.6 97 +14  1016.4  0.1  753  290           
00 19.09.17 130 (ЮВ) 21000 м    ясно 
+12.5 +10.8 89 +15  1015.6  -0.8  752  288           
03 19.09.17 190 (Ю) 20000 м    ясно 
+16.1 +9.9 67 +18  1015.2  -0.2  752  284  +9.4        сухая 
06 19.09.17 140 (ЮВ) 20000 м    1/0 верхняя 
[Ci fib]
+23.1 +12.9 53 +28  1015.2  0.3  752  277           
09 19.09.17 220 (ЮЗ) 4-11{12}  20000 м    ясно 
+29.2 +7.9 26 +29  1014.6  -0.3  752  273           
12 19.09.17 230 (ЮЗ) 5-10{14}  20000 м    6/0 верхняя 
[Ci fib]
+30.2 +4.4 19 +30  1013.8  -0.8  752  272           
15 19.09.17 230 (ЮЗ) 1{11}  20000 м    9/0 верхняя 
[Ci fib]
+25.3 +7.4 32 +25  1014.3  0.3  752  276    +30.4       
18 19.09.17 230 (ЮЗ) 20000 м    10/0 верхняя 
[Ci fib]
+17.3 +10.8 66 +21  1016.3  1.7  753  283           
21 19.09.17 330 (СЗ) 19000 м    8/0 верхняя 
[Ci fib]
+15.6 +10.5 72 +18  1017.6  1.2  754  285           
00 20.09.17 350 (С) 21000 м    3/0 верхняя 
[Ci fib]
+12.6 +7.9 73 +14  1019.4  1.6  755  290           
03 20.09.17 310 (СЗ) 20000 м    3/0 средняя, верхняя 
[Ac trans|Ci sp]
+10.6 +7.7 82 +12  1020.8  1.3  756  292  +10.1        сухая 
06 20.09.17 010 (С) 20000 м    4/3 1000 м верхняя 
[Sc|Ci fib]
+16.5 +7.1 54 +17  1022  1.4  757  287           
09 20.09.17 010 (С) 20000 м    6/0 средняя, верхняя 
[Ac trans|Ci fib]
+19.9 +7.2 44 +21  1021.7  0.1  757  283           
12 20.09.17 350 (С) 20000 м    3/0 верхняя 
[Ci fib]
+21.7 +5.9 36 +22  1021.3  -0.4  757  282           
15 20.09.17 040 (СВ) 20000 м    3/0 верхняя 
[Ci fib]
+16.3 +8.8 61 +17  1022.3  0.8  757  286    +21.8       
18 20.09.17 330 (СЗ) 19000 м    3/0 средняя 
[Ac trans]
+11.6 +7.9 78 +12  1023.4  0.9  758  292           
21 20.09.17 010 (С) 21000 м    ясно 
+8.4 +6.9 90 +9  1024.1  0.5  758  295           
00 21.09.17 350 (С) 21000 м    ясно 
+6.8 +6.4 97 +8  1024.9  0.7  759  297           
03 21.09.17 360 (С) 20000 м    3/1 1000 м верхняя 
[Sc|Ci fib]
+6.5 +5.2 91 +7  1025.9  760  298  +6.3        сухая 
Время (UTC), дата Ветер
(°,м/с) 
Видим.   Явления Облачность Т
(°С)
Тd
(°С)
f(%) Тe
(°С)
Pmin
(гПа)
dP
(гПа)
Po
(мм)
O2
(г/м3)
Тmin Tmax R s Состояние
почвы

Для получения пояснительной информации подведите курсор к названию столбца.

ПОГОДА в Сызрани - архив

Всё, что Вы хотите узнать о погоде в Сызрани - удобно и подробно!

Выберите нужную дату (начиная с 1 января 2015* года) и нажмите кнопку "Найти".
Будут отображены архивные сводки погоды по пункту Сызрань, начиная с указанной даты.


Отображать данные в формате CSV (для использования в таблицах Excel)


Внимание! Наш архив погоды предназначен исключительно для личного некоммерческого использования в познавательных целях. Если Вам необходимы официальные справки о состоянии погоды (для производственных, юридических, коммерческих и т.п. целей), обращайтесь в органы Росгидромета.

*Примечание: данная дата относится к архиву по метеостанциям СССР (Россия, СНГ, Балтия).
Архив по метеостанциям Зарубежной Европы и Азии (кроме Китая) хранится 10 дней, по другим регионам земного шара (Китай, Африка, Америка, Австралия, Океания) - 1 день.

Сызрань - район местоположения метеостанции


Название, широта, долгота, высота метеостанции:
Сызрань 53.2°ш. 48.4°д. 103 м над ур. моря [Российская Федерация]

Дополнительная информация

В oтличие oт бoльшинства пoгoдных сайтoв мы публикуем пoдрoбную метеoинфoрмацию в детальнoм прoфессиoнальнoм фoрмате.

Характеристики температуры и влажнoсти вoздуха измеряются на высoте 2 м в тени вдали oт зданий и деревьев.
Скoрoсть ветра измеряется на высoте 10 м (на урoвне рoста челoвека скoрoсть ветра ниже в 1.5-2 раза). Если метеoстанция нахoдится в гoрoде или в лесу, тo скoрoсть ветра занижена на 2-4 м/с пo сравнению с oткрытым местoм. Скoрoсть ветра над акватoриями крупных рек и oзёр, а также на вершинах хoлмoв на 2-5 м/с выше, чем в oбычных услoвиях.
Атмoсфернoе давление в разных тoчках местнoсти мoжет значительнo oтличаться oт давления на метеoстанции, в зависимoсти oт услoвий рельефа (при пoдъёме на 10 м давление пoнижается примернo на 1 мм рт.ст.).